IRNSS-1A

Last updated on Nov. 17, 2019, 4:19 a.m. UTC

1 39199U 13034A   19319.97903509  .00000114  00000-0  00000+0 0  9992
2 39199  30.4241 100.2345 0020944 183.2170 178.7374  1.00274289 23536
UTC
Height (km)
Latitude
Longitude
Inclination
Orbital Period
UTC large
Height (km)
Speed (km/s)
/
Latitude / Longitude
Inclination (degrees)
Orbital Period (minutes)
Azimuth
Elevation
Range (km)
Doppler Factor
iOS Compass Heading
iOS Angle

Next 30 passes for location: Hong Kong

Rise time Rise Azimuth (degrees) Set time Set Azimuth (degrees) Duration Max altitude (degrees)

No matching passes for this satellites